Year,Month,Day,Hour,Minute,Value (Times are PST for temperature in C)
2014,07,05,00,00,12.40
2014,07,05,00,01,12.40
2014,07,05,00,02,12.40
2014,07,05,00,03,12.40
2014,07,05,00,04,12.40
2014,07,05,00,05,12.40
2014,07,05,00,06,12.30
2014,07,05,00,07,12.30
2014,07,05,00,08,12.30
2014,07,05,00,09,12.30
2014,07,05,00,10,12.40
2014,07,05,00,11,12.40
2014,07,05,00,12,12.40
2014,07,05,00,13,12.50
2014,07,05,00,14,12.50
2014,07,05,00,15,12.60
2014,07,05,00,16,12.60
2014,07,05,00,17,12.60
2014,07,05,00,18,12.60
2014,07,05,00,19,12.60
2014,07,05,00,20,12.60
2014,07,05,00,21,12.50
2014,07,05,00,22,12.50
2014,07,05,00,23,12.50
2014,07,05,00,24,12.50
2014,07,05,00,25,12.60
2014,07,05,00,26,12.60
2014,07,05,00,27,12.60
2014,07,05,00,28,12.60
2014,07,05,00,29,12.60
2014,07,05,00,30,12.60
2014,07,05,00,31,12.60
2014,07,05,00,32,12.60
2014,07,05,00,33,12.60
2014,07,05,00,34,12.60
2014,07,05,00,35,12.60
2014,07,05,00,36,12.50
2014,07,05,00,37,12.50
2014,07,05,00,38,12.50
2014,07,05,00,39,12.50
2014,07,05,00,40,12.40
2014,07,05,00,41,12.40
2014,07,05,00,42,12.40
2014,07,05,00,43,12.40
2014,07,05,00,44,12.40
2014,07,05,00,45,12.30
2014,07,05,00,46,12.30
2014,07,05,00,47,12.30
2014,07,05,00,48,12.30
2014,07,05,00,49,12.30
2014,07,05,00,50,12.30
2014,07,05,00,51,12.30
2014,07,05,00,52,12.30
2014,07,05,00,53,12.30
2014,07,05,00,54,12.30
2014,07,05,00,55,12.30
2014,07,05,00,56,12.30
2014,07,05,00,57,12.30
2014,07,05,00,58,12.30
2014,07,05,00,59,12.30
2014,07,05,01,00,12.30
2014,07,05,01,01,12.30
2014,07,05,01,02,12.20
2014,07,05,01,03,12.20
2014,07,05,01,04,12.20
2014,07,05,01,05,12.20
2014,07,05,01,06,12.20
2014,07,05,01,07,12.20
2014,07,05,01,08,12.20
2014,07,05,01,09,12.20
2014,07,05,01,10,12.20
2014,07,05,01,11,12.20
2014,07,05,01,12,12.20
2014,07,05,01,13,12.20
2014,07,05,01,14,12.10
2014,07,05,01,15,12.10
2014,07,05,01,16,12.10
2014,07,05,01,17,12.10
2014,07,05,01,18,12.10
2014,07,05,01,19,12.10
2014,07,05,01,20,12.10
2014,07,05,01,21,12.10
2014,07,05,01,22,12.10
2014,07,05,01,23,12.10
2014,07,05,01,24,12.10
2014,07,05,01,25,12.10
2014,07,05,01,26,12.10
2014,07,05,01,27,12.10
2014,07,05,01,28,12.10
2014,07,05,01,29,12.10
2014,07,05,01,30,12.20
2014,07,05,01,31,12.20
2014,07,05,01,32,12.20
2014,07,05,01,33,12.20
2014,07,05,01,34,12.20
2014,07,05,01,35,12.20
2014,07,05,01,36,12.20
2014,07,05,01,37,12.60
2014,07,05,01,38,12.70
2014,07,05,01,39,12.70
2014,07,05,01,40,12.70
2014,07,05,01,41,12.80
2014,07,05,01,42,12.80
2014,07,05,01,43,12.80
2014,07,05,01,44,12.90
2014,07,05,01,45,12.90
2014,07,05,01,46,12.90
2014,07,05,01,47,12.90
2014,07,05,01,48,12.90
2014,07,05,01,49,12.90
2014,07,05,01,50,12.90
2014,07,05,01,51,12.90
2014,07,05,01,52,12.90
2014,07,05,01,53,12.90
2014,07,05,01,54,12.90
2014,07,05,01,55,12.80
2014,07,05,01,56,12.70
2014,07,05,01,57,12.70
2014,07,05,01,58,12.60
2014,07,05,01,59,12.50
2014,07,05,02,00,12.50
2014,07,05,02,01,12.40
2014,07,05,02,02,12.40
2014,07,05,02,03,12.40
2014,07,05,02,04,12.40
2014,07,05,02,05,12.40
2014,07,05,02,06,12.40
2014,07,05,02,07,12.30
2014,07,05,02,08,12.30
2014,07,05,02,09,12.30
2014,07,05,02,10,12.20
2014,07,05,02,11,12.20
2014,07,05,02,12,12.20
2014,07,05,02,13,12.30
2014,07,05,02,14,12.30
2014,07,05,02,15,12.40
2014,07,05,02,16,12.50
2014,07,05,02,17,12.60
2014,07,05,02,18,12.60
2014,07,05,02,19,12.70
2014,07,05,02,20,12.70
2014,07,05,02,21,12.70
2014,07,05,02,22,12.70
2014,07,05,02,23,12.70
2014,07,05,02,24,12.70
2014,07,05,02,25,12.70
2014,07,05,02,26,12.70
2014,07,05,02,27,12.70
2014,07,05,02,28,12.70
2014,07,05,02,29,12.70
2014,07,05,02,30,12.70
2014,07,05,02,31,12.70
2014,07,05,02,32,12.70
2014,07,05,02,33,12.70
2014,07,05,02,34,12.70
2014,07,05,02,35,12.70
2014,07,05,02,36,12.70
2014,07,05,02,37,12.70
2014,07,05,02,38,12.70
2014,07,05,02,39,12.70
2014,07,05,02,40,12.70
2014,07,05,02,41,12.70
2014,07,05,02,42,12.70
2014,07,05,02,43,12.80
2014,07,05,02,44,12.80
2014,07,05,02,45,12.80
2014,07,05,02,46,12.80
2014,07,05,02,47,12.80
2014,07,05,02,48,12.80
2014,07,05,02,49,12.80
2014,07,05,02,50,12.80
2014,07,05,02,51,12.80
2014,07,05,02,52,12.80
2014,07,05,02,53,12.80
2014,07,05,02,54,12.70
2014,07,05,02,55,12.70
2014,07,05,02,56,12.70
2014,07,05,02,57,12.60
2014,07,05,02,58,12.60
2014,07,05,02,59,12.60
2014,07,05,03,00,12.50
2014,07,05,03,01,12.50
2014,07,05,03,02,12.40
2014,07,05,03,03,12.40
2014,07,05,03,04,12.40
2014,07,05,03,05,12.30
2014,07,05,03,06,12.30
2014,07,05,03,07,12.30
2014,07,05,03,08,12.30
2014,07,05,03,09,12.30
2014,07,05,03,10,12.30
2014,07,05,03,11,12.30
2014,07,05,03,12,12.30
2014,07,05,03,13,12.30
2014,07,05,03,14,12.30
2014,07,05,03,15,12.30
2014,07,05,03,16,12.30
2014,07,05,03,17,12.30
2014,07,05,03,18,12.30
2014,07,05,03,19,12.30
2014,07,05,03,20,12.30
2014,07,05,03,21,12.30
2014,07,05,03,22,12.30
2014,07,05,03,23,12.20
2014,07,05,03,24,12.20
2014,07,05,03,25,12.20
2014,07,05,03,26,12.20
2014,07,05,03,27,12.20
2014,07,05,03,28,12.10
2014,07,05,03,29,12.10
2014,07,05,03,30,12.00
2014,07,05,03,31,12.00
2014,07,05,03,32,12.00
2014,07,05,03,33,12.00
2014,07,05,03,34,12.00
2014,07,05,03,35,11.90
2014,07,05,03,36,11.90
2014,07,05,03,37,11.90
2014,07,05,03,38,11.90
2014,07,05,03,39,11.90
2014,07,05,03,40,11.90
2014,07,05,03,41,11.90
2014,07,05,03,42,11.90
2014,07,05,03,43,11.90
2014,07,05,03,44,11.90
2014,07,05,03,45,11.90
2014,07,05,03,46,12.00
2014,07,05,03,47,12.00
2014,07,05,03,48,12.00
2014,07,05,03,49,12.00
2014,07,05,03,50,12.00
2014,07,05,03,51,12.00
2014,07,05,03,52,12.00
2014,07,05,03,53,11.90
2014,07,05,03,54,11.90
2014,07,05,03,55,11.80
2014,07,05,03,56,11.80
2014,07,05,03,57,11.80
2014,07,05,03,58,11.80
2014,07,05,03,59,11.80
2014,07,05,04,00,11.80
2014,07,05,04,01,11.80
2014,07,05,04,02,11.80
2014,07,05,04,03,11.90
2014,07,05,04,04,11.90
2014,07,05,04,05,11.90
2014,07,05,04,06,12.00
2014,07,05,04,07,12.10
2014,07,05,04,08,12.20
2014,07,05,04,09,12.30
2014,07,05,04,10,12.30
2014,07,05,04,11,12.30
2014,07,05,04,12,12.30
2014,07,05,04,13,12.40
2014,07,05,04,14,12.40
2014,07,05,04,15,12.40
2014,07,05,04,16,12.40
2014,07,05,04,17,12.40
2014,07,05,04,18,12.40
2014,07,05,04,19,12.40
2014,07,05,04,20,12.40
2014,07,05,04,21,12.40
2014,07,05,04,22,12.40
2014,07,05,04,23,12.40
2014,07,05,04,24,12.40
2014,07,05,04,25,12.40
2014,07,05,04,26,12.40
2014,07,05,04,27,12.30
2014,07,05,04,28,12.30
2014,07,05,04,29,12.30
2014,07,05,04,30,12.30
2014,07,05,04,31,12.30
2014,07,05,04,32,12.30
2014,07,05,04,33,12.30
2014,07,05,04,34,12.30
2014,07,05,04,35,12.40
2014,07,05,04,36,12.40
2014,07,05,04,37,12.40
2014,07,05,04,38,12.40
2014,07,05,04,39,12.40
2014,07,05,04,40,12.40
2014,07,05,04,41,12.40
2014,07,05,04,42,12.40
2014,07,05,04,43,12.40
2014,07,05,04,44,12.40
2014,07,05,04,45,12.40
2014,07,05,04,46,12.50
2014,07,05,04,47,12.50
2014,07,05,04,48,12.50
2014,07,05,04,49,12.50
2014,07,05,04,50,12.50
2014,07,05,04,51,12.50
2014,07,05,04,52,12.50
2014,07,05,04,53,12.50
2014,07,05,04,54,12.50
2014,07,05,04,55,12.50
2014,07,05,04,56,12.50
2014,07,05,04,57,12.40
2014,07,05,04,58,12.40
2014,07,05,04,59,12.40
2014,07,05,05,00,12.30
2014,07,05,05,01,12.20
2014,07,05,05,02,12.20
2014,07,05,05,03,12.20
2014,07,05,05,04,12.20
2014,07,05,05,05,12.20
2014,07,05,05,06,12.10
2014,07,05,05,07,12.10
2014,07,05,05,08,12.10
2014,07,05,05,09,12.10
2014,07,05,05,10,12.10
2014,07,05,05,11,12.10
2014,07,05,05,12,12.00
2014,07,05,05,13,12.00
2014,07,05,05,14,12.00
2014,07,05,05,15,12.00
2014,07,05,05,16,12.00
2014,07,05,05,17,11.90
2014,07,05,05,18,11.90
2014,07,05,05,19,11.90
2014,07,05,05,20,11.90
2014,07,05,05,21,11.90
2014,07,05,05,22,11.80
2014,07,05,05,23,11.80
2014,07,05,05,24,11.80
2014,07,05,05,25,11.80
2014,07,05,05,26,11.80
2014,07,05,05,27,11.80
2014,07,05,05,28,11.80
2014,07,05,05,29,11.80
2014,07,05,05,30,11.70
2014,07,05,05,31,11.70
2014,07,05,05,32,11.70
2014,07,05,05,33,11.70
2014,07,05,05,34,11.70
2014,07,05,05,35,11.70
2014,07,05,05,36,11.70
2014,07,05,05,37,11.70
2014,07,05,05,38,11.70
2014,07,05,05,39,11.70
2014,07,05,05,40,11.70
2014,07,05,05,41,11.70
2014,07,05,05,42,11.70
2014,07,05,05,43,11.70
2014,07,05,05,44,11.70
2014,07,05,05,45,11.80
2014,07,05,05,46,11.80
2014,07,05,05,47,11.80
2014,07,05,05,48,11.70
2014,07,05,05,49,11.70
2014,07,05,05,50,11.70
2014,07,05,05,51,11.70
2014,07,05,05,52,11.60
2014,07,05,05,53,11.60
2014,07,05,05,54,11.60
2014,07,05,05,55,11.60
2014,07,05,05,56,11.60
2014,07,05,05,57,11.60
2014,07,05,05,58,11.60
2014,07,05,05,59,11.60
2014,07,05,06,00,11.60
2014,07,05,06,01,11.60
2014,07,05,06,02,11.60
2014,07,05,06,03,11.60
2014,07,05,06,04,11.60
2014,07,05,06,05,11.60
2014,07,05,06,06,11.60
2014,07,05,06,07,11.60
2014,07,05,06,08,11.60
2014,07,05,06,09,11.50
2014,07,05,06,10,11.50
2014,07,05,06,11,11.50
2014,07,05,06,12,11.50
2014,07,05,06,13,11.50
2014,07,05,06,14,11.50
2014,07,05,06,15,11.50
2014,07,05,06,16,11.40
2014,07,05,06,17,11.40
2014,07,05,06,18,11.40
2014,07,05,06,19,11.40
2014,07,05,06,20,11.40
2014,07,05,06,21,11.40
2014,07,05,06,22,11.40
2014,07,05,06,23,11.40
2014,07,05,06,24,11.40
2014,07,05,06,25,11.40
2014,07,05,06,26,11.40
2014,07,05,06,27,11.40
2014,07,05,06,28,11.40
2014,07,05,06,29,11.40
2014,07,05,06,30,11.40
2014,07,05,06,31,11.40
2014,07,05,06,32,11.40
2014,07,05,06,33,11.40
2014,07,05,06,34,11.40
2014,07,05,06,35,11.40
2014,07,05,06,36,11.50
2014,07,05,06,37,11.50
2014,07,05,06,38,11.50
2014,07,05,06,39,11.40
2014,07,05,06,40,11.40
2014,07,05,06,41,11.40
2014,07,05,06,42,11.50
2014,07,05,06,43,11.50
2014,07,05,06,44,11.50
2014,07,05,06,45,11.50
2014,07,05,06,46,11.50
2014,07,05,06,47,11.40
2014,07,05,06,48,11.40
2014,07,05,06,49,11.40
2014,07,05,06,50,11.40
2014,07,05,06,51,11.40
2014,07,05,06,52,11.40
2014,07,05,06,53,11.40
2014,07,05,06,54,11.40
2014,07,05,06,55,11.40
2014,07,05,06,56,11.30
2014,07,05,06,57,11.30
2014,07,05,06,58,11.30
2014,07,05,06,59,11.30
2014,07,05,07,00,11.30
2014,07,05,07,01,11.30
2014,07,05,07,02,11.30
2014,07,05,07,03,11.20
2014,07,05,07,04,11.20
2014,07,05,07,05,11.20
2014,07,05,07,06,11.20
2014,07,05,07,07,11.20
2014,07,05,07,08,11.30
2014,07,05,07,09,11.30
2014,07,05,07,10,11.30
2014,07,05,07,11,11.30
2014,07,05,07,12,11.30
2014,07,05,07,13,11.30
2014,07,05,07,14,11.40
2014,07,05,07,15,11.40
2014,07,05,07,16,11.40
2014,07,05,07,17,11.50
2014,07,05,07,18,11.50
2014,07,05,07,19,11.50
2014,07,05,07,20,11.60
2014,07,05,07,21,11.60
2014,07,05,07,22,11.60
2014,07,05,07,23,11.60
2014,07,05,07,24,11.50
2014,07,05,07,25,11.50
2014,07,05,07,26,11.50
2014,07,05,07,27,11.50
2014,07,05,07,28,11.50
2014,07,05,07,29,11.40
2014,07,05,07,30,11.40
2014,07,05,07,31,11.50
2014,07,05,07,32,11.50
2014,07,05,07,33,11.50
2014,07,05,07,34,11.50
2014,07,05,07,35,11.50
2014,07,05,07,36,11.50
2014,07,05,07,37,11.50
2014,07,05,07,38,11.50
2014,07,05,07,39,11.50
2014,07,05,07,40,11.50
2014,07,05,07,41,11.60
2014,07,05,07,42,11.60
2014,07,05,07,43,11.60
2014,07,05,07,44,11.60
2014,07,05,07,45,11.60
2014,07,05,07,46,11.60
2014,07,05,07,47,11.60
2014,07,05,07,48,11.60
2014,07,05,07,49,11.60
2014,07,05,07,50,11.60
2014,07,05,07,51,11.60
2014,07,05,07,52,11.60
2014,07,05,07,53,11.60
2014,07,05,07,54,11.70
2014,07,05,07,55,11.70
2014,07,05,07,56,11.70
2014,07,05,07,57,11.70
2014,07,05,07,58,11.60
2014,07,05,07,59,11.60
2014,07,05,08,00,11.60
2014,07,05,08,01,11.60
2014,07,05,08,02,11.60
2014,07,05,08,03,11.60
2014,07,05,08,04,11.60
2014,07,05,08,05,11.60
2014,07,05,08,06,11.60
2014,07,05,08,07,11.60
2014,07,05,08,08,11.50
2014,07,05,08,09,11.50
2014,07,05,08,10,11.50
2014,07,05,08,11,11.40
2014,07,05,08,12,11.40
2014,07,05,08,13,11.40
2014,07,05,08,14,11.40
2014,07,05,08,15,11.40
2014,07,05,08,16,11.40
2014,07,05,08,17,11.40
2014,07,05,08,18,11.40
2014,07,05,08,19,11.40
2014,07,05,08,20,11.40
2014,07,05,08,21,11.40
2014,07,05,08,22,11.40
2014,07,05,08,23,11.40
2014,07,05,08,24,11.40
2014,07,05,08,25,11.30
2014,07,05,08,26,11.30
2014,07,05,08,27,11.30
2014,07,05,08,28,11.30
2014,07,05,08,29,11.30
2014,07,05,08,30,11.30
2014,07,05,08,31,11.30
2014,07,05,08,32,11.30
2014,07,05,08,33,11.30
2014,07,05,08,34,11.30
2014,07,05,08,35,11.20
2014,07,05,08,36,11.20
2014,07,05,08,37,11.20
2014,07,05,08,38,11.20
2014,07,05,08,39,11.20
2014,07,05,08,40,11.20
2014,07,05,08,41,11.20
2014,07,05,08,42,11.20
2014,07,05,08,43,11.20
2014,07,05,08,44,11.20
2014,07,05,08,45,11.20
2014,07,05,08,46,11.20
2014,07,05,08,47,11.20
2014,07,05,08,48,11.20
2014,07,05,08,49,11.20
2014,07,05,08,50,11.20
2014,07,05,08,51,11.20
2014,07,05,08,52,11.20
2014,07,05,08,53,11.20
2014,07,05,08,54,11.30
2014,07,05,08,55,11.30
2014,07,05,08,56,11.30
2014,07,05,08,57,11.30
2014,07,05,08,58,11.30
2014,07,05,08,59,11.30
2014,07,05,09,00,11.30
2014,07,05,09,01,11.30
2014,07,05,09,02,11.30
2014,07,05,09,03,11.30
2014,07,05,09,04,11.30
2014,07,05,09,05,11.30
2014,07,05,09,06,11.30
2014,07,05,09,07,11.30
2014,07,05,09,08,11.30
2014,07,05,09,09,11.30
2014,07,05,09,10,11.30
2014,07,05,09,11,11.30
2014,07,05,09,12,11.30
2014,07,05,09,13,11.30
2014,07,05,09,14,11.30
2014,07,05,09,15,11.30
2014,07,05,09,16,11.30
2014,07,05,09,17,11.30
2014,07,05,09,18,11.30
2014,07,05,09,19,11.30
2014,07,05,09,20,11.30
2014,07,05,09,21,11.30
2014,07,05,09,22,11.30
2014,07,05,09,23,11.30
2014,07,05,09,24,11.30
2014,07,05,09,25,11.30
2014,07,05,09,26,11.30
2014,07,05,09,27,11.30
2014,07,05,09,28,11.30
2014,07,05,09,29,11.30
2014,07,05,09,30,11.30
2014,07,05,09,31,11.30
2014,07,05,09,32,11.30
2014,07,05,09,33,11.30
2014,07,05,09,34,11.30
2014,07,05,09,35,11.30
2014,07,05,09,36,11.30
2014,07,05,09,37,11.30
2014,07,05,09,38,11.30
2014,07,05,09,39,11.30
2014,07,05,09,40,11.40
2014,07,05,09,41,11.40
2014,07,05,09,42,11.40
2014,07,05,09,43,11.40
2014,07,05,09,44,11.40
2014,07,05,09,45,11.40
2014,07,05,09,46,11.40
2014,07,05,09,47,11.40
2014,07,05,09,48,11.40
2014,07,05,09,49,11.40
2014,07,05,09,50,11.40
2014,07,05,09,51,11.40
2014,07,05,09,52,11.40
2014,07,05,09,53,11.40
2014,07,05,09,54,11.40
2014,07,05,09,55,11.40
2014,07,05,09,56,11.40
2014,07,05,09,57,11.50
2014,07,05,09,58,11.50
2014,07,05,09,59,11.50
2014,07,05,10,00,11.50
2014,07,05,10,01,11.50
2014,07,05,10,02,11.50
2014,07,05,10,03,11.50
2014,07,05,10,04,11.50
2014,07,05,10,05,11.50
2014,07,05,10,06,11.50
2014,07,05,10,07,11.50
2014,07,05,10,08,11.50
2014,07,05,10,09,11.50
2014,07,05,10,10,11.50
2014,07,05,10,11,11.50
2014,07,05,10,12,11.50
2014,07,05,10,13,11.60
2014,07,05,10,14,11.60
2014,07,05,10,15,11.60
2014,07,05,10,16,11.60
2014,07,05,10,17,11.60
2014,07,05,10,18,11.60
2014,07,05,10,19,11.70
2014,07,05,10,20,11.70
2014,07,05,10,21,11.70
2014,07,05,10,22,11.70
2014,07,05,10,23,11.70
2014,07,05,10,24,11.70
2014,07,05,10,25,11.70
2014,07,05,10,26,11.70
2014,07,05,10,27,11.70
2014,07,05,10,28,11.70
2014,07,05,10,29,11.70
2014,07,05,10,30,11.70
2014,07,05,10,31,11.80
2014,07,05,10,32,11.80
2014,07,05,10,33,11.80
2014,07,05,10,34,11.80
2014,07,05,10,35,11.80
2014,07,05,10,36,11.80
2014,07,05,10,37,11.80
2014,07,05,10,38,11.80
2014,07,05,10,39,11.80
2014,07,05,10,40,11.80
2014,07,05,10,41,11.80
2014,07,05,10,42,11.90
2014,07,05,10,43,11.90
2014,07,05,10,44,11.90
2014,07,05,10,45,11.90
2014,07,05,10,46,11.90
2014,07,05,10,47,11.90
2014,07,05,10,48,11.90
2014,07,05,10,49,11.90
2014,07,05,10,50,11.90
2014,07,05,10,51,12.00
2014,07,05,10,52,12.00
2014,07,05,10,53,12.00
2014,07,05,10,54,12.10
2014,07,05,10,55,12.10
2014,07,05,10,56,12.20
2014,07,05,10,57,12.20
2014,07,05,10,58,12.30
2014,07,05,10,59,12.30
2014,07,05,11,00,12.30
2014,07,05,11,01,12.40
2014,07,05,11,02,12.40
2014,07,05,11,03,12.40
2014,07,05,11,04,12.40
2014,07,05,11,05,12.40
2014,07,05,11,06,12.40
2014,07,05,11,07,12.40
2014,07,05,11,08,12.40
2014,07,05,11,09,12.40
2014,07,05,11,10,12.40
2014,07,05,11,11,12.40
2014,07,05,11,12,12.40
2014,07,05,11,13,12.50
2014,07,05,11,14,12.50
2014,07,05,11,15,12.50
2014,07,05,11,16,12.50
2014,07,05,11,17,12.50
2014,07,05,11,18,12.30
2014,07,05,11,19,12.20
2014,07,05,11,20,12.20
2014,07,05,11,21,12.20
2014,07,05,11,22,12.20
2014,07,05,11,23,12.30
2014,07,05,11,24,12.30
2014,07,05,11,25,12.30
2014,07,05,11,26,12.30
2014,07,05,11,27,12.30
2014,07,05,11,28,12.30
2014,07,05,11,29,12.30
2014,07,05,11,30,12.30
2014,07,05,11,31,12.30
2014,07,05,11,32,12.30
2014,07,05,11,33,12.30
2014,07,05,11,34,12.30
2014,07,05,11,35,12.30
2014,07,05,11,36,12.20
2014,07,05,11,37,12.20
2014,07,05,11,38,12.20
2014,07,05,11,39,12.20
2014,07,05,11,40,12.20
2014,07,05,11,41,12.20
2014,07,05,11,42,12.20
2014,07,05,11,43,12.20
2014,07,05,11,44,12.20
2014,07,05,11,45,12.20
2014,07,05,11,46,12.20
2014,07,05,11,47,12.20
2014,07,05,11,48,12.30
2014,07,05,11,49,12.30
2014,07,05,11,50,12.30
2014,07,05,11,51,12.30
2014,07,05,11,52,12.30
2014,07,05,11,53,12.30
2014,07,05,11,54,12.30
2014,07,05,11,55,12.30
2014,07,05,11,56,12.30
2014,07,05,11,57,12.30
2014,07,05,11,58,12.30
2014,07,05,11,59,12.20
2014,07,05,12,00,12.20
2014,07,05,12,01,12.20
2014,07,05,12,02,12.20
2014,07,05,12,03,12.20
2014,07,05,12,04,12.20
2014,07,05,12,05,12.20
2014,07,05,12,06,12.20
2014,07,05,12,07,12.20
2014,07,05,12,08,12.20
2014,07,05,12,09,12.20
2014,07,05,12,10,12.20
2014,07,05,12,11,12.10
2014,07,05,12,12,12.10
2014,07,05,12,13,12.10
2014,07,05,12,14,12.10
2014,07,05,12,15,12.10
2014,07,05,12,16,12.00
2014,07,05,12,17,12.00
2014,07,05,12,18,12.00
2014,07,05,12,19,12.10
2014,07,05,12,20,12.10
2014,07,05,12,21,12.10
2014,07,05,12,22,12.10
2014,07,05,12,23,12.10
2014,07,05,12,24,12.10
2014,07,05,12,25,12.10
2014,07,05,12,26,12.10
2014,07,05,12,27,12.10
2014,07,05,12,28,12.10
2014,07,05,12,29,12.10
2014,07,05,12,30,12.10
2014,07,05,12,31,12.10
2014,07,05,12,32,12.10
2014,07,05,12,33,12.10
2014,07,05,12,34,12.10
2014,07,05,12,35,12.10
2014,07,05,12,36,12.10
2014,07,05,12,37,12.10
2014,07,05,12,38,12.10
2014,07,05,12,39,12.20
2014,07,05,12,40,12.20
2014,07,05,12,41,12.20
2014,07,05,12,42,12.20
2014,07,05,12,43,12.20
2014,07,05,12,44,12.20
2014,07,05,12,45,12.20
2014,07,05,12,46,12.30
2014,07,05,12,47,12.30
2014,07,05,12,48,12.30
2014,07,05,12,49,12.40
2014,07,05,12,50,12.40
2014,07,05,12,51,12.50
2014,07,05,12,52,12.50
2014,07,05,12,53,12.60
2014,07,05,12,54,12.70
2014,07,05,12,55,12.80
2014,07,05,12,56,12.80
2014,07,05,12,57,12.90
2014,07,05,12,58,13.00
2014,07,05,12,59,13.10
2014,07,05,13,00,13.10
2014,07,05,13,01,13.20
2014,07,05,13,02,13.20
2014,07,05,13,03,13.20
2014,07,05,13,04,13.20
2014,07,05,13,05,13.20
2014,07,05,13,06,13.10
2014,07,05,13,07,13.00
2014,07,05,13,08,12.90
2014,07,05,13,09,12.80
2014,07,05,13,10,12.70
2014,07,05,13,11,12.70
2014,07,05,13,12,12.70
2014,07,05,13,13,12.70
2014,07,05,13,14,12.60
2014,07,05,13,15,12.60
2014,07,05,13,16,12.60
2014,07,05,13,17,12.60
2014,07,05,13,18,12.70
2014,07,05,13,19,12.70
2014,07,05,13,20,12.80
2014,07,05,13,21,12.80
2014,07,05,13,22,12.80
2014,07,05,13,23,12.80
2014,07,05,13,24,12.80
2014,07,05,13,25,12.80
2014,07,05,13,26,12.80
2014,07,05,13,27,12.80
2014,07,05,13,28,12.80
2014,07,05,13,29,12.80
2014,07,05,13,30,12.80
2014,07,05,13,31,12.80
2014,07,05,13,32,12.80
2014,07,05,13,33,12.70
2014,07,05,13,34,12.70
2014,07,05,13,35,12.70
2014,07,05,13,36,12.70
2014,07,05,13,37,12.70
2014,07,05,13,38,12.70
2014,07,05,13,39,12.70
2014,07,05,13,40,12.60
2014,07,05,13,41,12.60
2014,07,05,13,42,12.60
2014,07,05,13,43,12.60
2014,07,05,13,44,12.60
2014,07,05,13,45,12.50
2014,07,05,13,46,12.50
2014,07,05,13,47,12.50
2014,07,05,13,48,12.50
2014,07,05,13,49,12.50
2014,07,05,13,50,12.40
2014,07,05,13,51,12.40
2014,07,05,13,52,12.40
2014,07,05,13,53,12.40
2014,07,05,13,54,12.40
2014,07,05,13,55,12.40
2014,07,05,13,56,12.40
2014,07,05,13,57,12.40
2014,07,05,13,58,12.50
2014,07,05,13,59,12.50
2014,07,05,14,00,12.50
2014,07,05,14,01,12.50
2014,07,05,14,02,12.50
2014,07,05,14,03,12.40
2014,07,05,14,04,12.40
2014,07,05,14,05,12.50
2014,07,05,14,06,12.50
2014,07,05,14,07,12.70
2014,07,05,14,08,12.90
2014,07,05,14,09,13.00
2014,07,05,14,10,13.20
2014,07,05,14,11,13.40
2014,07,05,14,12,13.50
2014,07,05,14,13,13.60
2014,07,05,14,14,13.70
2014,07,05,14,15,13.80
2014,07,05,14,16,13.90
2014,07,05,14,17,14.10
2014,07,05,14,18,14.20
2014,07,05,14,19,14.30
2014,07,05,14,20,14.40
2014,07,05,14,21,14.50
2014,07,05,14,22,14.60
2014,07,05,14,23,14.70
2014,07,05,14,24,14.80
2014,07,05,14,25,14.90
2014,07,05,14,26,15.00
2014,07,05,14,27,15.00
2014,07,05,14,28,15.10
2014,07,05,14,29,15.10
2014,07,05,14,30,15.10
2014,07,05,14,31,15.10
2014,07,05,14,32,15.20
2014,07,05,14,33,15.20
2014,07,05,14,34,15.30
2014,07,05,14,35,15.30
2014,07,05,14,36,15.40
2014,07,05,14,37,15.40
2014,07,05,14,38,15.40
2014,07,05,14,39,15.40
2014,07,05,14,40,15.50
2014,07,05,14,41,15.50
2014,07,05,14,42,15.50
2014,07,05,14,43,15.60
2014,07,05,14,44,15.60
2014,07,05,14,45,15.60
2014,07,05,14,46,15.60
2014,07,05,14,47,15.60
2014,07,05,14,48,15.60
2014,07,05,14,49,15.60
2014,07,05,14,50,15.60
2014,07,05,14,51,15.60
2014,07,05,14,52,15.60
2014,07,05,14,53,15.60
2014,07,05,14,54,15.60
2014,07,05,14,55,15.60
2014,07,05,14,56,15.70
2014,07,05,14,57,15.60
2014,07,05,14,58,15.60
2014,07,05,14,59,15.50
2014,07,05,15,00,15.30
2014,07,05,15,01,15.20
2014,07,05,15,02,15.10
2014,07,05,15,03,14.90
2014,07,05,15,04,14.70
2014,07,05,15,05,14.60
2014,07,05,15,06,14.30
2014,07,05,15,07,14.20
2014,07,05,15,08,14.10
2014,07,05,15,09,14.00
2014,07,05,15,10,13.90
2014,07,05,15,11,13.90
2014,07,05,15,12,13.80
2014,07,05,15,13,13.80
2014,07,05,15,14,13.80
2014,07,05,15,15,13.70
2014,07,05,15,16,13.70
2014,07,05,15,17,13.70
2014,07,05,15,18,13.70
2014,07,05,15,19,13.60
2014,07,05,15,20,13.60
2014,07,05,15,21,13.30
2014,07,05,15,22,13.10
2014,07,05,15,23,13.00
2014,07,05,15,24,13.00
2014,07,05,15,25,13.00
2014,07,05,15,26,13.00
2014,07,05,15,27,12.90
2014,07,05,15,28,12.80
2014,07,05,15,29,12.70
2014,07,05,15,30,12.60
2014,07,05,15,31,12.70
2014,07,05,15,32,12.80
2014,07,05,15,33,12.80
2014,07,05,15,34,12.90
2014,07,05,15,35,13.00
2014,07,05,15,36,13.10
2014,07,05,15,37,13.10
2014,07,05,15,38,13.20
2014,07,05,15,39,13.30
2014,07,05,15,40,13.40
2014,07,05,15,41,13.40
2014,07,05,15,42,13.40
2014,07,05,15,43,13.20
2014,07,05,15,44,13.20
2014,07,05,15,45,13.20
2014,07,05,15,46,13.20
2014,07,05,15,47,13.10
2014,07,05,15,48,12.90
2014,07,05,15,49,12.80
2014,07,05,15,50,12.80
2014,07,05,15,51,12.90
2014,07,05,15,52,12.90
2014,07,05,15,53,12.90
2014,07,05,15,54,12.80
2014,07,05,15,55,12.70
2014,07,05,15,56,12.60
2014,07,05,15,57,12.60
2014,07,05,15,58,12.50
2014,07,05,15,59,12.60
2014,07,05,16,00,12.70
2014,07,05,16,01,12.80
2014,07,05,16,02,13.00
2014,07,05,16,03,13.10
2014,07,05,16,04,13.10
2014,07,05,16,05,13.10
2014,07,05,16,06,13.10
2014,07,05,16,07,13.20
2014,07,05,16,08,13.20
2014,07,05,16,09,13.30
2014,07,05,16,10,13.30
2014,07,05,16,11,13.40
2014,07,05,16,12,13.40
2014,07,05,16,13,13.50
2014,07,05,16,14,13.40
2014,07,05,16,15,13.50
2014,07,05,16,16,13.60
2014,07,05,16,17,13.70
2014,07,05,16,18,13.80
2014,07,05,16,19,13.80
2014,07,05,16,20,13.90
2014,07,05,16,21,13.90
2014,07,05,16,22,14.00
2014,07,05,16,23,14.00
2014,07,05,16,24,13.90
2014,07,05,16,25,13.80
2014,07,05,16,26,13.60
2014,07,05,16,27,13.60
2014,07,05,16,28,13.50
2014,07,05,16,29,13.50
2014,07,05,16,30,13.60
2014,07,05,16,31,13.50
2014,07,05,16,32,13.50
2014,07,05,16,33,13.50
2014,07,05,16,34,13.40
2014,07,05,16,35,13.40
2014,07,05,16,36,13.30
2014,07,05,16,37,13.30
2014,07,05,16,38,13.40
2014,07,05,16,39,13.40
2014,07,05,16,40,13.40
2014,07,05,16,41,13.40
2014,07,05,16,42,13.50
2014,07,05,16,43,13.50
2014,07,05,16,44,13.60
2014,07,05,16,45,13.60
2014,07,05,16,46,13.60
2014,07,05,16,47,13.60
2014,07,05,16,48,13.70
2014,07,05,16,49,13.70
2014,07,05,16,50,13.50
2014,07,05,16,51,13.30
2014,07,05,16,52,13.20
2014,07,05,16,53,13.10
2014,07,05,16,54,13.10
2014,07,05,16,55,13.10
2014,07,05,16,56,13.20
2014,07,05,16,57,13.30
2014,07,05,16,58,13.40
2014,07,05,16,59,13.50
2014,07,05,17,00,13.50
2014,07,05,17,01,13.60
2014,07,05,17,02,13.70
2014,07,05,17,03,13.80
2014,07,05,17,04,13.90
2014,07,05,17,05,13.90
2014,07,05,17,06,14.00
2014,07,05,17,07,14.00
2014,07,05,17,08,14.10
2014,07,05,17,09,14.10
2014,07,05,17,10,14.10
2014,07,05,17,11,14.20
2014,07,05,17,12,14.20
2014,07,05,17,13,14.30
2014,07,05,17,14,14.40
2014,07,05,17,15,14.40
2014,07,05,17,16,14.50
2014,07,05,17,17,14.50
2014,07,05,17,18,14.50
2014,07,05,17,19,14.60